Location: Lewisville
(33.0462°N, 96.9942°W)
Time: 16:25:51
(UTC-06:00)

Envisat - Pass Details

Date: 19 October 2019
Orbit: 764 x 766 km, 98.1° (Epoch: 22 November)

Event Time Altitude Azimuth Distance (km) Brightness Sun altitude
Rises 19:43:21 0° 169° (S) 3,217 6.2 -11.9°
Reaches altitude 10° 19:45:39 10° 171° (S) 2,294 5.4 -12.3°
Maximum altitude 19:50:42 79° 257° (WSW) 784 3.1 -13.4°
Drops below altitude 10° 19:55:48 10° 345° (NNW) 2,308 5.6 -14.5°
Sets 19:58:07 0° 347° (NNW) 3,237 6.4 -15.0°
